[[{"header":{"parameterUnit":"m.s-1","parameterCategory":2,"la1":30.2991,"la2":30.254,"lo1":-89.0895,"lo2":-89.0444,"dy":0.0017,"dx":0.0017,"nx":28,"ny":28,"refTime":"2026-02-13T09:00:00:Z","depth":"0","parameterNumber":2,"parameterNumberName":"U-component_of_CURRENTS"},"data":[0,0,0,0,0,0,0,0,0,0,0,0,0,0,0,0,0,0,0,0,0,0,0,0,0,0,0,0,0,0,0,0,0,0,0,0,0,0,0,0,0,0,0,0,0,0,0,0,0,0,0,0,0,0,0,0,0,0,0.3435,0.3435,0,0.3455,0.3455,0.3455,0.3438,0.3438,0.3437,0.3437,0.3414,0.3414,0.3413,0,0,0,0,0,0,0,0,0,0,0,0,0,0.3386,0.3387,0.3434,0.3435,0.3436,0.3455,0.3455,0.3455,0.3438,0.3438,0.3437,0.3437,0.3414,0.3414,0.3413,0,0,0,0,0,0,0,0,0,0,0,0,0,0.3404,0.3387,0.3434,0.3432,0.3432,0.3455,0.3455,0.3455,0.3438,0.3438,0.3437,0.3436,0.3414,0.3414,0.3413,0.3425,0,0,0.3412,0.3412,0,0,0,0,0,0,0,0,0.3403,0.3405,0.3432,0.3432,0.3432,0.3446,0.343,0.3444,0.3438,0.3433,0.3437,0.3436,0.3423,0.3422,0.3424,0.3424,0.3423,0.3412,0.3412,0.3412,0.3412,0,0,0,0,0,0,0,0.3402,0.3404,0.344,0.3432,0.3433,0.3432,0.3433,0.3433,0.3428,0.3433,0.3433,0.344,0.3422,0.3424,0.3423,0.3422,0.3412,0.3412,0.3412,0.3412,0.3474,0.3476,0,0,0,0,0,0,0.3406,0.3403,0.3439,0.3441,0.3419,0.3433,0.3435,0.344,0.3429,0.3428,0.3441,0.3439,0.3425,0.3423,0.3422,0.3468,0.3412,0.3412,0.3412,0.3472,0.3474,0.3476,0,0,0,0,0,0,0.3405,0.3409,0.3438,0.3425,0.3429,0.3435,0.3441,0.3441,0.3448,0.3436,0.3433,0.3449,0.3424,0.3422,0.3436,0.3465,0.3412,0.3411,0.347,0.3473,0.3475,0.3538,0,0,0,0,0,0,0.3403,0.3408,0.3412,0.3425,0.343,0.3463,0.3442,0.3442,0.3455,0.3454,0.3443,0.3439,0.3424,0.3437,0.3436,0.3464,0.3411,0.3468,0.3471,0.3475,0.3534,0.3543,0.355,0,0,0,0,0,0.3401,0.3413,0.3412,0.3417,0.3436,0.3465,0.3467,0.3467,0.3456,0.3469,0.3463,0.344,0.3458,0.3438,0.3436,0.3465,0.3466,0.347,0.3474,0.353,0.3541,0.355,0,0,0,0,0,0,0.339,0.3413,0.3412,0.3429,0.345,0.3463,0.3475,0.3475,0.3481,0.3477,0.3458,0.3456,0.3484,0.3468,0.3446,0.3496,0.3461,0.3465,0.3504,0.3514,0.3522,0.3552,0.3411,0,0,0,0,0,0.3392,0.3408,0.3429,0.3444,0.3457,0.3467,0.3478,0.3482,0.349,0.3492,0.3485,0.3485,0.3501,0.35,0.3508,0.3527,0.3583,0.3548,0.3556,0.3563,0.3589,0.3702,0.3724,0.349,0.349,0.349,0,0,0.3391,0.3407,0.3414,0.3443,0.3457,0.3486,0.3472,0.3497,0.3521,0.3489,0.3514,0.3516,0.3515,0.3544,0.3555,0.3531,0.3664,0.3569,0.3574,0.3597,0.3709,0.3732,0.3753,0.3493,0.3492,0.3492,0,0,0.3405,0.3414,0.3435,0.3458,0.349,0.3503,0.3515,0.3537,0.3546,0.3571,0.3565,0.3591,0.3591,0.361,0.3616,0.3677,0.371,0.3673,0.373,0.384,0.3861,0.388,0.4002,0.4032,0.3669,0.367,0.367,0,0.3402,0.3431,0.3446,0.3476,0.3502,0.3515,0.355,0.3567,0.3589,0.3617,0.3586,0.365,0.363,0.3703,0.3712,0.3698,0.3774,0.3687,0.3854,0.3873,0.3891,0.4012,0.4044,0.3673,0.3673,0.3672,0.3672,0,0.3432,0.346,0.3478,0.3521,0.3551,0.3585,0.3617,0.3647,0.3656,0.368,0.3751,0.3747,0.3797,0.3784,0.3755,0.3876,0.3895,0.3858,0.383,0.3919,0.404,0.4072,0.3678,0.3677,0.3676,0.3675,0,0,0.3417,0.3486,0.3491,0.3533,0.358,0.3619,0.3665,0.373,0.3802,0.3807,0.3909,0.3906,0.393,0.3942,0.3932,0.3996,0.4169,0.3978,0.3982,0.4105,0.4448,0.4399,0.4428,0.4168,0.4174,0.4178,0.4489,0,0.3438,0.351,0.3532,0.361,0.3659,0.3693,0.3754,0.3815,0.3867,0.3969,0.3988,0.4077,0.3986,0.4038,0.4088,0.4166,0.4254,0.4091,0.434,0.4348,0.4296,0.4463,0.4266,0.4521,0.452,0.4526,0.4529,0,0.346,0.3513,0.359,0.3694,0.372,0.3764,0.3894,0.3951,0.4078,0.4132,0.4216,0.4256,0.4367,0.4273,0.4465,0.4374,0.4423,0.4459,0.4472,0.4427,0.4357,0.4428,0.4579,0.4452,0.4578,0.4574,0.4571,0,0.3472,0.3556,0.3627,0.3657,0.377,0.3817,0.3877,0.3999,0.4089,0.4262,0.4367,0.4487,0.4587,0.4668,0.4713,0.4628,0.4933,0.4829,0.484,0.4838,0.4721,0.4698,0.4779,0.4986,0.4985,0.4984,0.4983,0,0.35,0.3563,0.3641,0.3688,0.38,0.3856,0.3996,0.4082,0.4238,0.4379,0.4463,0.4616,0.4691,0.4842,0.4851,0.4975,0.5061,0.4914,0.4934,0.4736,0.4713,0.4632,0.4578,0.4996,0.4993,0.4991,0.4989,0,0.353,0.3569,0.3672,0.3779,0.3814,0.3903,0.405,0.4164,0.4306,0.4503,0.4574,0.478,0.4985,0.506,0.5234,0.5171,0.5144,0.5284,0.5053,0.5037,0.4862,0.4819,0.4797,0.4652,0.5371,0.5372,0.5372,0,0.3572,0.3618,0.3735,0.3799,0.385,0.3969,0.406,0.4191,0.4305,0.4595,0.4698,0.4961,0.5116,0.5377,0.5348,0.5435,0.5232,0.5279,0.5047,0.4889,0.4857,0.4635,0.4495,0.4941,0.4938,0.4936,0.4934,0,0.3663,0.3689,0.3776,0.3887,0.3977,0.4067,0.4184,0.4267,0.4438,0.4598,0.4821,0.4975,0.522,0.5225,0.5333,0.5332,0.5023,0.5232,0.5135,0.4607,0.4309,0.4163,0.4716,0.4913,0.4915,0.4916,0.4918,0.4918,0.3746,0.3816,0.3905,0.3997,0.4079,0.4125,0.4156,0.4279,0.4417,0.4573,0.4791,0.4908,0.5032,0.5151,0.5139,0.496,0.4911,0.477,0.4769,0.4586,0.4313,0.4831,0.4984,0.4986,0.4988,0.499,0.4991,0,0.3843,0.39,0.4006,0.4084,0.4107,0.4137,0.4213,0.4195,0.4271,0.4446,0.4584,0.4626,0.4691,0.4734,0.4664,0.4496,0.4247,0.439,0.4024,0.3934,0.4481,0.4322,0.4255,0.4255,0.4255,0.4255,0.4255,0.4255,0.3916,0.4004,0.4025,0.4062,0.408,0.4026,0.401,0.4003,0.4056,0.4056,0.4027,0.4101,0.4289,0.4439,0.4295,0.4182,0.3843,0.3701,0.3695,0.4077,0.4109,0.4139,0.3975,0.3836,0.3836,0.2921,0.2915,0.291]},{"header":{"parameterUnit":"m.s-1","parameterCategory":2,"la1":30.2991,"la2":30.254,"lo1":-89.0895,"lo2":-89.0444,"dy":0.0017,"dx":0.0017,"nx":28,"ny":28,"refTime":"2026-02-13T09:00:00:Z","depth":"0","parameterNumber":3,"parameterNumberName":"V-component_of_CURRENTS"},"data":[0,0,0,0,0,0,0,0,0,0,0,0,0,0,0,0,0,0,0,0,0,0,0,0,0,0,0,0,0,0,0,0,0,0,0,0,0,0,0,0,0,0,0,0,0,0,0,0,0,0,0,0,0,0,0,0,0,0,0.0086,0.0086,0,0.001,0.0009,0.0008,-0.0049,-0.005,-0.005,-0.005,-0.0143,-0.0145,-0.0147,0,0,0,0,0,0,0,0,0,0,0,0,0,0.0117,0.0117,0.0086,0.0086,0.0085,0.001,0.0009,0.0007,-0.0049,-0.005,-0.005,-0.005,-0.0142,-0.0144,-0.0147,0,0,0,0,0,0,0,0,0,0,0,0,0,0.0076,0.0117,0.0087,0.0049,0.0046,0.001,0.0009,0.0007,-0.0049,-0.005,-0.005,-0.005,-0.0141,-0.0144,-0.0147,-0.0159,0,0,-0.0157,-0.0159,0,0,0,0,0,0,0,0,0.0078,0.0075,0.0056,0.0052,0.0048,-0.0008,-0.0014,-0.0049,-0.0049,-0.0016,-0.005,-0.0051,-0.0097,-0.0104,-0.0121,-0.0164,-0.0168,-0.0158,-0.016,-0.0161,-0.0162,0,0,0,0,0,0,0,0.0081,0.0077,0.0054,0.0055,0.005,0.0014,0.0008,-0.0022,-0.0055,-0.0019,-0.0023,-0.0027,-0.01,-0.0118,-0.0123,-0.0169,-0.0158,-0.0161,-0.0163,-0.0164,-0.0219,-0.0219,0,0,0,0,0,0,0.01,0.008,0.0056,0.0051,0.0065,0.0014,0.0007,0.0008,-0.0055,-0.0064,-0.0026,-0.0029,-0.0112,-0.012,-0.0127,-0.0122,-0.0161,-0.0164,-0.0166,-0.022,-0.0219,-0.0219,0,0,0,0,0,0,0.0101,0.0099,0.0059,0.0066,0.0058,0.0015,0.0015,0.0007,-0.0006,-0.006,-0.007,-0.0029,-0.0112,-0.0122,-0.0144,-0.0127,-0.0166,-0.0169,-0.0221,-0.022,-0.0219,-0.0128,0,0,0,0,0,0,0.0102,0.01,0.0105,0.0067,0.0059,0.0053,0.0016,0.0006,-0.0007,-0.0012,-0.0066,-0.0075,-0.0113,-0.0139,-0.0147,-0.0132,-0.0171,-0.0221,-0.022,-0.0219,-0.0131,-0.0124,-0.0117,0,0,0,0,0,0.0104,0.0121,0.0106,0.0103,0.0068,0.0054,0.0047,0.0011,-0.0007,-0.0004,-0.0042,-0.0073,-0.0139,-0.0141,-0.0151,-0.0137,-0.0222,-0.022,-0.0219,-0.0134,-0.0125,-0.0118,0,0,0,0,0,0,0.0136,0.0116,0.0098,0.0108,0.0088,0.0046,0.0045,0.0021,-0.0009,-0.0013,-0.0067,-0.0079,-0.0094,-0.0127,-0.0128,-0.0151,-0.0186,-0.0186,-0.0117,-0.0109,-0.0103,-0.008,-0.0174,0,0,0,0,0,0.0147,0.0153,0.0125,0.0132,0.0127,0.0086,0.0075,0.0055,0.0024,0.001,-0.0027,-0.0067,-0.0098,-0.0112,-0.0147,-0.0155,-0.0177,-0.0154,-0.0147,-0.0141,-0.013,-0.0156,-0.015,-0.0215,-0.0215,-0.0215,0,0,0.016,0.015,0.0152,0.0139,0.0118,0.0126,0.0079,0.0073,0.0078,0.0006,-0.0,-0.0045,-0.0096,-0.0109,-0.0118,-0.0133,-0.0129,-0.0139,-0.0133,-0.0126,-0.0154,-0.0148,-0.0142,-0.0214,-0.0214,-0.0215,0,0,0.0198,0.0183,0.0204,0.0195,0.0179,0.0158,0.0163,0.0129,0.0113,0.0099,0.0049,0.0018,-0.0029,-0.006,-0.0083,-0.0058,-0.0094,-0.007,-0.0013,-0.0038,-0.0032,-0.0028,-0.0023,-0.0019,-0.0063,-0.0063,-0.0062,0,0.0214,0.0238,0.0207,0.0227,0.0231,0.0181,0.0208,0.0185,0.0148,0.0144,0.0111,0.0043,-0.0005,-0.0017,-0.0013,-0.004,-0.0051,-0.0037,-0.0027,-0.0023,-0.002,-0.0017,-0.0013,-0.0058,-0.0059,-0.0059,-0.0059,0,0.0269,0.0287,0.03,0.031,0.031,0.0325,0.0297,0.029,0.026,0.0235,0.021,0.0139,0.0102,0.0078,0.0038,0.0039,0.0027,-0.0016,-0.0043,-0.0008,-0.0006,-0.0004,-0.0051,-0.0053,-0.0054,-0.0056,0,0,0.0311,0.0336,0.0341,0.0366,0.0359,0.0369,0.0379,0.0378,0.0398,0.0336,0.0354,0.0273,0.023,0.0201,0.0143,0.0114,0.0124,0.0066,0.0063,0.0082,0.0096,0.0095,0.0096,0.0083,0.0083,0.0083,0.0097,0,0.0364,0.0429,0.0422,0.0481,0.0514,0.0482,0.0498,0.0488,0.0469,0.0473,0.0389,0.0373,0.0279,0.0265,0.0222,0.0157,0.0129,0.0126,0.0049,0.0048,0.005,0.0098,0.0094,0.0106,0.0099,0.0099,0.0099,0,0.0422,0.0462,0.0532,0.0578,0.0589,0.0609,0.064,0.0654,0.0637,0.062,0.0582,0.0518,0.0473,0.0378,0.0284,0.029,0.0201,0.0135,0.0134,0.0101,0.0049,0.0063,0.0109,-0.0112,0.0102,0.0102,0.0101,0,0.0477,0.0539,0.0603,0.0618,0.0656,0.0677,0.0695,0.0697,0.0737,0.0721,0.0753,0.066,0.0643,0.0515,0.0381,0.0333,0.029,0.0203,0.0115,0.0115,0.0081,0.0077,-0.0088,0.0122,0.0122,0.0121,0.0121,0,0.0541,0.0591,0.0633,0.0668,0.0749,0.0746,0.0828,0.0828,0.0862,0.0946,0.0838,0.0893,0.0673,0.0618,0.0456,0.0329,0.0348,0.0146,0.012,0.0115,0.0114,-0.0106,-0.024,0.0122,0.0122,0.0122,0.0122,0,0.0593,0.0616,0.0697,0.0753,0.0778,0.0836,0.0926,0.0989,0.1009,0.1121,0.1125,0.1082,0.1022,0.0823,0.0643,0.0454,0.0183,0.0247,0.0275,0.025,-0.0074,-0.0201,-0.0388,-0.0495,0.0142,0.0142,0.0142,0,0.0627,0.0673,0.0766,0.0821,0.0849,0.0939,0.1005,0.1051,0.1138,0.1265,0.1334,0.1306,0.1347,0.1103,0.0751,0.0485,0.0236,0.0256,0.0133,-0.0072,-0.0234,-0.034,-0.0424,0.0134,0.0134,0.0134,0.0134,0,0.0694,0.072,0.0787,0.09,0.0979,0.1095,0.1199,0.1291,0.1383,0.1517,0.1689,0.1746,0.152,0.1259,0.0851,0.0627,0.0081,0.0245,0.0013,-0.0262,-0.0369,-0.0488,0.0122,0.0134,0.0134,0.0134,0.0134,0.0134,0.0737,0.0793,0.0871,0.098,0.1086,0.1225,0.1339,0.1489,0.168,0.1926,0.1968,0.215,0.1701,0.1164,0.0809,0.0109,0.0085,-0.0131,-0.0264,-0.0347,-0.0477,0.0154,0.014,0.014,0.014,0.014,0.014,0,0.0782,0.0843,0.0946,0.1076,0.1205,0.1253,0.1453,0.1603,0.1865,0.2159,0.2369,0.2294,0.1735,0.112,0.0174,-0.0317,-0.0527,-0.0589,-0.0769,-0.083,-0.028,-0.0309,-0.0396,-0.0396,-0.0396,-0.0396,-0.0395,-0.0395,0.0804,0.0892,0.0943,0.1141,0.125,0.1446,0.1573,0.1823,0.2072,0.2456,0.2638,0.274,0.224,0.0564,-0.0553,-0.0803,-0.1184,-0.1258,-0.1429,-0.1092,-0.1061,-0.1031,-0.1091,-0.1341,-0.1342,-0.1932,-0.1938,-0.1942]}],[{"header":{"parameterUnit":"m.s-1","parameterCategory":2,"la1":30.2991,"la2":30.254,"lo1":-89.0895,"lo2":-89.0444,"dy":0.0017,"dx":0.0017,"nx":28,"ny":28,"refTime":"2026-02-13T09:00:00:Z","depth":"2","parameterNumber":2,"parameterNumberName":"U-component_of_CURRENTS"},"data":[0,0,0,0,0,0,0,0,0,0,0,0,0,0,0,0,0,0,0,0,0,0,0,0,0,0,0,0,0,0,0,0,0,0,0,0,0,0,0,0,0,0,0,0,0,0,0,0,0,0,0,0,0,0,0,0,0,0,0.2812,0.2813,0,0.2851,0.2851,0.2851,0.2853,0.2853,0.2853,0.2853,0.2865,0.2866,0.2866,0,0,0,0,0,0,0,0,0,0,0,0,0,0.2754,0.2755,0.2812,0.2813,0.2814,0.2851,0.2851,0.2851,0.2853,0.2853,0.2853,0.2852,0.2865,0.2866,0.2866,0,0,0,0,0,0,0,0,0,0,0,0,0,0.2782,0.2755,0.2812,0.2821,0.2823,0.2851,0.2851,0.2852,0.2853,0.2853,0.2853,0.2852,0.2865,0.2866,0.2866,0.2877,0,0,0.2869,0.2869,0,0,0,0,0,0,0,0,0.278,0.2784,0.2819,0.2821,0.2823,0.285,0.2836,0.286,0.2853,0.2838,0.2853,0.2852,0.286,0.2861,0.2865,0.2877,0.2878,0.2869,0.2869,0.287,0.287,0,0,0,0,0,0,0,0.2778,0.2782,0.2825,0.282,0.2822,0.2829,0.2832,0.284,0.2847,0.284,0.2841,0.285,0.286,0.2864,0.2865,0.2878,0.2869,0.2869,0.287,0.287,0.2953,0.2954,0,0,0,0,0,0,0.2779,0.278,0.2823,0.2826,0.2804,0.283,0.2833,0.2839,0.2848,0.285,0.285,0.285,0.2863,0.2864,0.2866,0.2922,0.287,0.287,0.2871,0.2951,0.2953,0.2955,0,0,0,0,0,0,0.2778,0.2783,0.2822,0.2807,0.2812,0.2832,0.2837,0.284,0.2855,0.2857,0.2858,0.2865,0.2863,0.2865,0.2891,0.2921,0.2871,0.2871,0.2949,0.2952,0.2954,0.3007,0,0,0,0,0,0,0.2776,0.2782,0.2789,0.2807,0.2813,0.285,0.2838,0.2841,0.2862,0.2862,0.287,0.287,0.2863,0.289,0.2892,0.2921,0.2872,0.2947,0.295,0.2953,0.3003,0.3011,0.3018,0,0,0,0,0,0.2774,0.2784,0.2789,0.2794,0.2821,0.2851,0.2855,0.2866,0.2863,0.2877,0.2885,0.287,0.2912,0.2892,0.2893,0.2924,0.2945,0.2949,0.2953,0.3,0.301,0.3018,0,0,0,0,0,0,0.2761,0.2786,0.2791,0.2808,0.2834,0.2853,0.2869,0.2875,0.2892,0.2895,0.2888,0.289,0.2929,0.292,0.2898,0.2959,0.2928,0.2932,0.2963,0.2972,0.298,0.2991,0.2872,0,0,0,0,0,0.2763,0.2778,0.2804,0.282,0.2835,0.2854,0.2868,0.2879,0.2896,0.2903,0.291,0.2922,0.2945,0.2953,0.2969,0.2996,0.3019,0.3019,0.3027,0.3033,0.3045,0.3108,0.3123,0.2968,0.2968,0.2968,0,0,0.2762,0.278,0.2788,0.2819,0.2839,0.2867,0.2862,0.2893,0.2919,0.2903,0.2939,0.2951,0.2961,0.2998,0.3013,0.2993,0.3092,0.3038,0.3043,0.3052,0.3114,0.3129,0.3142,0.297,0.297,0.297,0,0,0.2771,0.2787,0.2805,0.283,0.2868,0.2884,0.2897,0.2927,0.2945,0.298,0.2984,0.3016,0.3036,0.3057,0.3068,0.3127,0.3134,0.3132,0.3173,0.3234,0.3247,0.3259,0.3319,0.3335,0.313,0.313,0.313,0,0.277,0.2794,0.2816,0.2844,0.2869,0.2895,0.2924,0.295,0.2985,0.3009,0.2999,0.3066,0.3068,0.3128,0.3149,0.3145,0.3181,0.3134,0.3244,0.3256,0.3267,0.3326,0.3343,0.3133,0.3132,0.3132,0.3132,0,0.2792,0.2818,0.2835,0.2877,0.2908,0.2939,0.2981,0.3014,0.3036,0.3061,0.3127,0.3144,0.3183,0.3193,0.3186,0.3272,0.3273,0.325,0.3219,0.3286,0.3343,0.3361,0.3137,0.3136,0.3135,0.3134,0,0,0.2771,0.2836,0.2841,0.2866,0.2928,0.2952,0.3011,0.3068,0.3119,0.3151,0.3217,0.3256,0.3273,0.3288,0.3295,0.3343,0.3451,0.3333,0.3334,0.339,0.3599,0.3552,0.3566,0.345,0.3453,0.3456,0.3611,0,0.2782,0.2829,0.2865,0.2917,0.2946,0.2996,0.3052,0.311,0.3166,0.3238,0.3273,0.3341,0.3308,0.3345,0.3387,0.3445,0.3499,0.3412,0.3528,0.3532,0.348,0.3585,0.3294,0.3403,0.3628,0.3631,0.3633,0,0.2787,0.2821,0.2866,0.2941,0.296,0.2998,0.3096,0.3152,0.326,0.3314,0.3385,0.3422,0.3509,0.3468,0.3596,0.3546,0.358,0.3612,0.3618,0.3567,0.3518,0.3371,0.3426,0.3662,0.366,0.3658,0.3656,0,0.275,0.282,0.2853,0.2876,0.2966,0.3002,0.3058,0.3168,0.324,0.3377,0.3445,0.3542,0.3616,0.367,0.3724,0.3679,0.3865,0.3805,0.3796,0.3793,0.3564,0.3535,0.39,0.39,0.39,0.3899,0.3899,0,0.274,0.2766,0.2836,0.2854,0.2916,0.2983,0.3073,0.316,0.3293,0.339,0.3478,0.3575,0.3675,0.3773,0.3789,0.3864,0.392,0.3838,0.3842,0.3575,0.3547,0.3774,0.3757,0.3905,0.3904,0.3903,0.3902,0,0.2695,0.2738,0.2777,0.2862,0.2899,0.294,0.3077,0.314,0.3283,0.3418,0.3469,0.3648,0.3788,0.3866,0.3998,0.3963,0.4025,0.4028,0.3715,0.3679,0.3894,0.3878,0.4043,0.4043,0.4043,0.4043,0.4043,0,0.2676,0.2689,0.2771,0.2798,0.2836,0.2915,0.2973,0.3125,0.3211,0.3447,0.3506,0.3703,0.3802,0.3985,0.3997,0.4052,0.408,0.3796,0.3646,0.3928,0.3915,0.3899,0.3884,0.3369,0.3364,0.3359,0.3355,0,0.2637,0.2658,0.2689,0.2747,0.2796,0.2861,0.2963,0.3025,0.3206,0.3317,0.3479,0.3579,0.3789,0.3736,0.3839,0.3814,0.3761,0.3707,0.4105,0.3378,0.3305,0.3288,0.3293,0.3315,0.3319,0.3322,0.3324,0.3326,0.26,0.2604,0.2636,0.268,0.2741,0.2777,0.2776,0.2889,0.2983,0.3115,0.3326,0.3386,0.3496,0.3507,0.3429,0.3378,0.3624,0.3442,0.3451,0.3466,0.336,0.329,0.3279,0.3282,0.3285,0.3288,0.3291,0,0.2546,0.2547,0.2572,0.2602,0.2603,0.2682,0.2742,0.2699,0.2727,0.2917,0.3029,0.2881,0.2899,0.2988,0.2862,0.2887,0.2799,0.2758,0.2601,0.2648,0.2689,0.2534,0.2239,0.2235,0.2231,0.2228,0,0,0.2509,0.2484,0.248,0.2437,0.247,0.2413,0.2402,0.2371,0.2442,0.2451,0.2501,0.2791,0.2928,0.2541,0.2513,0.2343,0.2458,0.2256,0.3116,0.298,0.3014,0.3123,0.2947,0,0,0,0,0]},{"header":{"parameterUnit":"m.s-1","parameterCategory":2,"la1":30.2991,"la2":30.254,"lo1":-89.0895,"lo2":-89.0444,"dy":0.0017,"dx":0.0017,"nx":28,"ny":28,"refTime":"2026-02-13T09:00:00:Z","depth":"2","parameterNumber":3,"parameterNumberName":"V-component_of_CURRENTS"},"data":[0,0,0,0,0,0,0,0,0,0,0,0,0,0,0,0,0,0,0,0,0,0,0,0,0,0,0,0,0,0,0,0,0,0,0,0,0,0,0,0,0,0,0,0,0,0,0,0,0,0,0,0,0,0,0,0,0,0,0.0117,0.0117,0,0.005,0.005,0.0049,0.0001,0.0001,0.0001,0.0001,-0.0079,-0.0081,-0.0083,0,0,0,0,0,0,0,0,0,0,0,0,0,0.0146,0.0146,0.0118,0.0117,0.0116,0.0051,0.0049,0.0048,0.0001,0.0001,0.0001,0.0,-0.0078,-0.0081,-0.0083,0,0,0,0,0,0,0,0,0,0,0,0,0,0.011,0.0146,0.0118,0.0086,0.0083,0.0051,0.0049,0.0048,0.0001,0.0001,0.0001,0.0,-0.0078,-0.008,-0.0083,-0.0095,0,0,-0.0092,-0.0093,0,0,0,0,0,0,0,0,0.0112,0.0109,0.0091,0.0088,0.0085,0.0036,0.003,0.0,0.0001,0.003,0.0001,0.0,-0.004,-0.0046,-0.0061,-0.0099,-0.0102,-0.0092,-0.0094,-0.0095,-0.0096,0,0,0,0,0,0,0,0.0115,0.0111,0.0089,0.0091,0.0087,0.0055,0.005,0.0024,-0.0004,0.0028,0.0025,0.002,-0.0043,-0.0058,-0.0063,-0.0103,-0.0092,-0.0095,-0.0097,-0.0098,-0.0149,-0.0149,0,0,0,0,0,0,0.013,0.0114,0.0091,0.0087,0.01,0.0055,0.005,0.005,-0.0004,-0.0012,0.0021,0.0018,-0.0053,-0.006,-0.0066,-0.0064,-0.0095,-0.0098,-0.01,-0.015,-0.0149,-0.0149,0,0,0,0,0,0,0.0131,0.0129,0.0094,0.01,0.0094,0.0056,0.0056,0.0049,0.0037,-0.0009,-0.0017,0.0018,-0.0053,-0.0062,-0.0082,-0.0068,-0.0099,-0.0102,-0.015,-0.015,-0.0149,-0.0072,0,0,0,0,0,0,0.0132,0.013,0.0134,0.0101,0.0094,0.0087,0.0057,0.0048,0.0036,0.0032,-0.0014,-0.0022,-0.0054,-0.0077,-0.0084,-0.0073,-0.0104,-0.0151,-0.015,-0.0149,-0.0075,-0.0069,-0.0064,0,0,0,0,0,0.0134,0.0148,0.0135,0.0132,0.0102,0.0088,0.0081,0.0051,0.0036,0.0038,0.0005,-0.0021,-0.0078,-0.0079,-0.0088,-0.0076,-0.0151,-0.015,-0.0149,-0.0078,-0.007,-0.0064,0,0,0,0,0,0,0.016,0.0143,0.0129,0.0136,0.0117,0.0081,0.0079,0.0058,0.0033,0.003,-0.0016,-0.0026,-0.004,-0.0069,-0.0069,-0.009,-0.0119,-0.012,-0.0061,-0.0055,-0.0049,-0.0032,-0.0107,0,0,0,0,0,0.017,0.0175,0.0151,0.0155,0.015,0.0115,0.0105,0.0087,0.0061,0.0049,0.0016,-0.0018,-0.0044,-0.0057,-0.0087,-0.0096,-0.0127,-0.0095,-0.009,-0.0085,-0.0077,-0.0113,-0.0109,-0.0146,-0.0146,-0.0146,0,0,0.018,0.0172,0.0174,0.0161,0.0143,0.0149,0.0108,0.0102,0.0106,0.0045,0.0039,0.0,-0.0043,-0.0055,-0.0064,-0.0076,-0.0091,-0.0084,-0.0079,-0.0074,-0.0111,-0.0108,-0.0105,-0.0146,-0.0146,-0.0146,0,0,0.0211,0.0199,0.0217,0.0209,0.0194,0.0175,0.0179,0.0149,0.0135,0.0122,0.008,0.0052,0.0012,-0.0016,-0.0035,-0.0016,-0.0061,-0.0026,0.0019,-0.0015,-0.0012,-0.001,-0.0042,-0.0043,-0.0021,-0.0021,-0.0021,0,0.0224,0.0245,0.0218,0.0235,0.0239,0.0195,0.0219,0.0197,0.0164,0.0159,0.0132,0.0071,0.0031,0.0018,0.0021,-0.0002,-0.0029,-0.0001,-0.0007,-0.0005,-0.0004,-0.0038,-0.004,-0.0017,-0.0018,-0.0018,-0.0019,0,0.0271,0.0286,0.0298,0.0307,0.0307,0.0319,0.0294,0.0287,0.0261,0.0237,0.0213,0.015,0.0118,0.0097,0.0063,0.0054,0.003,0.0004,-0.002,0.0004,-0.0033,-0.0036,-0.0012,-0.0013,-0.0014,-0.0015,0,0,0.0304,0.0328,0.0332,0.0356,0.035,0.0359,0.0365,0.0363,0.0378,0.0321,0.0328,0.0262,0.0224,0.0198,0.0148,0.0111,0.0088,0.0066,0.0063,0.0043,0.0015,-0.0012,-0.0019,0.0062,0.0062,0.0061,-0.0012,0,0.035,0.0408,0.0402,0.0455,0.0486,0.0458,0.047,0.0459,0.0439,0.0433,0.0356,0.034,0.0265,0.0253,0.0203,0.0122,0.0081,0.011,-0.0012,-0.0016,-0.0037,-0.0024,0.0005,-0.0058,-0.0016,-0.0016,-0.0017,0,0.0399,0.0436,0.05,0.0544,0.0553,0.0572,0.0597,0.0607,0.058,0.0564,0.0524,0.0463,0.0402,0.0332,0.0201,0.0224,0.0129,0.0054,0.0049,-0.0005,-0.005,-0.0078,-0.0067,-0.0024,-0.0023,-0.0023,-0.0022,0,0.0448,0.0505,0.0564,0.0578,0.0613,0.0633,0.0649,0.0645,0.0681,0.0653,0.0667,0.0571,0.054,0.0402,0.0239,0.0223,0.009,0.0049,-0.0068,-0.0072,-0.0085,-0.0089,-0.0046,-0.0046,-0.0046,-0.0045,-0.0045,0,0.0505,0.0551,0.0592,0.0626,0.0702,0.0698,0.0773,0.0771,0.0793,0.0855,0.0743,0.076,0.0556,0.045,0.0281,0.0102,0.0121,-0.0057,-0.0091,-0.0058,-0.0059,-0.0062,-0.0063,-0.0048,-0.0047,-0.0047,-0.0046,0,0.0552,0.0574,0.0649,0.0703,0.0729,0.0784,0.0872,0.0931,0.0928,0.1004,0.1001,0.0914,0.0775,0.0556,0.0343,0.0178,-0.0006,-0.0078,-0.0026,-0.0053,-0.0158,-0.0154,-0.0215,-0.0216,-0.0217,-0.0219,-0.0219,0,0.0583,0.0626,0.0716,0.0776,0.0806,0.0893,0.0962,0.0999,0.1082,0.1109,0.1159,0.1041,0.0985,0.0646,0.0334,0.0033,-0.0007,-0.014,-0.0174,-0.0147,-0.0174,-0.0168,-0.0163,-0.0163,-0.0163,-0.0164,-0.0164,0,0.0648,0.0672,0.074,0.0865,0.095,0.1067,0.1172,0.1258,0.1314,0.136,0.141,0.1358,0.1038,0.0736,0.0311,0.0109,-0.0094,-0.0156,-0.0135,-0.0123,-0.0104,-0.0129,-0.0124,-0.0166,-0.0166,-0.0166,-0.0166,-0.0166,0.0696,0.0757,0.0846,0.0969,0.1076,0.1225,0.1335,0.1448,0.1573,0.1659,0.1607,0.1534,0.1178,0.064,0.0269,-0.0119,-0.0105,-0.024,-0.0236,-0.0233,-0.0213,-0.0197,-0.0273,-0.0273,-0.0273,-0.0273,-0.0274,0,0.0764,0.0837,0.0951,0.1099,0.1227,0.1277,0.147,0.1574,0.1725,0.1788,0.1815,0.1476,0.1121,0.071,0.0129,-0.0218,-0.0238,-0.032,-0.0271,-0.0266,-0.0261,-0.0241,-0.031,-0.0311,-0.0312,-0.0313,0,0,0.0803,0.0919,0.0982,0.12,0.1311,0.1498,0.1615,0.1748,0.1838,0.1889,0.1852,0.1769,0.1255,0.0834,0.0354,0.002,-0.0037,-0.004,0.0027,0.0147,0.0156,-0.0179,-0.0138,0,0,0,0,0]}],[{"header":{"parameterUnit":"m.s-1","parameterCategory":2,"la1":30.2991,"la2":30.254,"lo1":-89.0895,"lo2":-89.0444,"dy":0.0017,"dx":0.0017,"nx":28,"ny":28,"refTime":"2026-02-13T09:00:00:Z","depth":"4","parameterNumber":2,"parameterNumberName":"U-component_of_CURRENTS"},"data":[0,0,0,0,0,0,0,0,0,0,0,0,0,0,0,0,0,0,0,0,0,0,0,0,0,0,0,0,0,0,0,0,0,0,0,0,0,0,0,0,0,0,0,0,0,0,0,0,0,0,0,0,0,0,0,0,0,0,0.1865,0.1866,0,0.1944,0.1945,0.1946,0.2008,0.2009,0.201,0.2011,0.2103,0.2105,0.2107,0,0,0,0,0,0,0,0,0,0,0,0,0,0.1773,0.1774,0.1865,0.1867,0.1868,0.1944,0.1945,0.1946,0.2008,0.2009,0.201,0.2011,0.2103,0.2105,0.2107,0,0,0,0,0,0,0,0,0,0,0,0,0,0.1827,0.1775,0.1865,0.191,0.1914,0.1944,0.1945,0.1946,0.2008,0.2009,0.201,0.2012,0.2102,0.2105,0.2107,0.2099,0,0,0.2115,0.2116,0,0,0,0,0,0,0,0,0.1824,0.183,0.1902,0.1907,0.1912,0.1969,0.1947,0.1998,0.2008,0.197,0.2011,0.2012,0.206,0.2066,0.2075,0.2103,0.2107,0.2115,0.2117,0.2118,0.2119,0,0,0,0,0,0,0,0.182,0.1827,0.1895,0.1903,0.1909,0.1927,0.1936,0.1956,0.2006,0.1974,0.1979,0.199,0.2063,0.2073,0.2078,0.2108,0.2115,0.2118,0.2119,0.212,0.2255,0.2257,0,0,0,0,0,0,0.1813,0.1823,0.1892,0.1897,0.1872,0.1928,0.1937,0.1948,0.2006,0.2016,0.1989,0.1993,0.2068,0.2075,0.2082,0.2183,0.2118,0.212,0.2122,0.2253,0.2255,0.2257,0,0,0,0,0,0,0.181,0.1818,0.1889,0.1864,0.1874,0.1928,0.194,0.1949,0.2,0.2018,0.2029,0.2035,0.2069,0.2078,0.214,0.2183,0.2122,0.2124,0.225,0.2254,0.2256,0.2316,0,0,0,0,0,0,0.1807,0.1816,0.1841,0.1863,0.1875,0.1932,0.1939,0.195,0.2003,0.201,0.206,0.2067,0.2071,0.2136,0.2142,0.2185,0.2126,0.2248,0.2252,0.2255,0.2311,0.2321,0.2329,0,0,0,0,0,0.1804,0.1825,0.1841,0.1851,0.19,0.1933,0.1942,0.1982,0.2005,0.2032,0.2071,0.2068,0.2165,0.214,0.2147,0.2191,0.2246,0.2251,0.2255,0.2308,0.2319,0.2328,0,0,0,0,0,0,0.1799,0.1834,0.1852,0.1885,0.192,0.1945,0.1981,0.2004,0.2055,0.2077,0.2091,0.2102,0.2173,0.2174,0.2146,0.2243,0.2206,0.2212,0.2244,0.2254,0.2263,0.2262,0.2128,0,0,0,0,0,0.1808,0.1837,0.1867,0.19,0.192,0.1958,0.1985,0.2013,0.2051,0.2077,0.2112,0.2152,0.219,0.2217,0.2247,0.2296,0.2303,0.2331,0.234,0.2347,0.2352,0.2398,0.2411,0.2273,0.2272,0.2272,0,0,0.1816,0.1841,0.1859,0.1903,0.1936,0.1969,0.1979,0.2032,0.2071,0.2078,0.2157,0.2187,0.2211,0.2271,0.2303,0.2282,0.2393,0.2353,0.2359,0.236,0.2404,0.2418,0.2429,0.2276,0.2275,0.2275,0,0,0.1834,0.1872,0.1898,0.1931,0.1986,0.2007,0.2031,0.208,0.2121,0.2186,0.2207,0.2264,0.232,0.2346,0.2364,0.2438,0.2438,0.2456,0.2499,0.2544,0.2555,0.2565,0.2598,0.2611,0.2458,0.2459,0.2459,0,0.1848,0.188,0.1913,0.1947,0.1981,0.2028,0.2064,0.2107,0.2175,0.2211,0.2224,0.2329,0.2353,0.242,0.2452,0.2457,0.2481,0.2455,0.2554,0.2564,0.2573,0.2605,0.2618,0.2462,0.2462,0.2461,0.2461,0,0.1871,0.1915,0.1937,0.1993,0.2033,0.2077,0.213,0.2188,0.2242,0.2279,0.2374,0.2413,0.2472,0.2494,0.2498,0.2582,0.2577,0.256,0.2523,0.2591,0.262,0.2633,0.2467,0.2466,0.2465,0.2464,0,0,0.1851,0.1936,0.1948,0.1982,0.2064,0.2091,0.2172,0.2241,0.2302,0.2375,0.245,0.2523,0.2554,0.2577,0.2599,0.2642,0.2731,0.2638,0.2639,0.2664,0.2836,0.2669,0.2667,0.2737,0.274,0.2742,0.2832,0,0.1864,0.1921,0.1969,0.2037,0.207,0.2144,0.2209,0.2285,0.236,0.2445,0.2504,0.2588,0.2583,0.2634,0.2675,0.2725,0.2767,0.2708,0.2773,0.2775,0.2612,0.2676,0.2749,0.2842,0.2844,0.2846,0.2848,0,0.1861,0.1903,0.1966,0.2057,0.2081,0.2136,0.2249,0.2316,0.2438,0.2506,0.2594,0.2648,0.2742,0.2724,0.2831,0.28,0.2827,0.2851,0.2855,0.2684,0.263,0.276,0.287,0.2868,0.2867,0.2865,0.2864,0,0.1804,0.1899,0.1949,0.1981,0.209,0.2146,0.2215,0.2336,0.2408,0.2559,0.2631,0.2733,0.281,0.2862,0.2918,0.2894,0.3022,0.2984,0.2856,0.2845,0.2941,0.2929,0.3054,0.3054,0.3053,0.3053,0.3053,0,0.1773,0.1819,0.1933,0.1957,0.203,0.2123,0.222,0.2312,0.2452,0.2533,0.2661,0.2735,0.2854,0.2932,0.2957,0.2944,0.3054,0.2873,0.2858,0.2965,0.2955,0.295,0.2937,0.3057,0.3056,0.3055,0.3055,0,0.1695,0.1773,0.1834,0.1957,0.2003,0.2055,0.2211,0.2271,0.2432,0.2546,0.2604,0.2771,0.2872,0.2962,0.3062,0.2979,0.2996,0.2965,0.3092,0.3082,0.2779,0.2769,0.2816,0.2811,0.2807,0.2803,0.28,0,0.1654,0.1681,0.1814,0.1849,0.1911,0.201,0.2071,0.2242,0.231,0.2538,0.257,0.2742,0.283,0.2835,0.2941,0.2977,0.2944,0.2926,0.2826,0.2775,0.2757,0.2753,0.2748,0.2793,0.2792,0.2791,0.279,0,0.1571,0.1637,0.1682,0.1758,0.1827,0.1895,0.2001,0.2042,0.2232,0.2401,0.2484,0.255,0.2658,0.2727,0.2785,0.2801,0.2918,0.2879,0.2887,0.2793,0.2747,0.2733,0.2734,0.2775,0.2777,0.2778,0.2779,0,0.151,0.1516,0.1585,0.1637,0.1719,0.1748,0.1826,0.1906,0.2,0.2252,0.2274,0.2461,0.2626,0.2638,0.2689,0.2697,0.2647,0.2544,0.2568,0.2586,0.2468,0.2373,0.228,0,0,0,0,0,0.1433,0.142,0.1456,0.1497,0.1575,0.1627,0.1759,0.1844,0.2035,0.2034,0.2152,0.2245,0.2332,0.2431,0.2393,0.2587,0.2655,0.2531,0.2547,0.2691,0.2709,0.2591,0,0,0,0,0,0,0.1376,0.14,0.1403,0.1373,0.1382,0.1448,0.1529,0.1659,0.1675,0.1882,0.1944,0.2102,0.2222,0.2329,0.2347,0.2377,0.2339,0.2654,0.2648,0.2681,0.2697,0.2711,0.2596,0,0,0,0,0]},{"header":{"parameterUnit":"m.s-1","parameterCategory":2,"la1":30.2991,"la2":30.254,"lo1":-89.0895,"lo2":-89.0444,"dy":0.0017,"dx":0.0017,"nx":28,"ny":28,"refTime":"2026-02-13T09:00:00:Z","depth":"4","parameterNumber":3,"parameterNumberName":"V-component_of_CURRENTS"},"data":[0,0,0,0,0,0,0,0,0,0,0,0,0,0,0,0,0,0,0,0,0,0,0,0,0,0,0,0,0,0,0,0,0,0,0,0,0,0,0,0,0,0,0,0,0,0,0,0,0,0,0,0,0,0,0,0,0,0,0.0104,0.0103,0,0.0059,0.0058,0.0058,0.0027,0.0026,0.0026,0.0026,-0.0033,-0.0034,-0.0036,0,0,0,0,0,0,0,0,0,0,0,0,0,0.0121,0.0121,0.0104,0.0103,0.0103,0.0059,0.0058,0.0057,0.0027,0.0026,0.0026,0.0026,-0.0033,-0.0034,-0.0036,0,0,0,0,0,0,0,0,0,0,0,0,0,0.0098,0.0121,0.0104,0.0083,0.0081,0.0059,0.0058,0.0057,0.0027,0.0026,0.0026,0.0026,-0.0032,-0.0034,-0.0036,-0.0046,0,0,-0.0043,-0.0044,0,0,0,0,0,0,0,0,0.0099,0.0097,0.0087,0.0084,0.0082,0.0049,0.0043,0.0022,0.0027,0.0046,0.0026,0.0026,-0.0006,-0.001,-0.002,-0.0049,-0.0052,-0.0043,-0.0045,-0.0045,-0.0046,0,0,0,0,0,0,0,0.0101,0.0099,0.0085,0.0086,0.0083,0.0062,0.0059,0.0039,0.002,0.0044,0.0042,0.0039,-0.0007,-0.0018,-0.0022,-0.0053,-0.0043,-0.0045,-0.0046,-0.0047,-0.0089,-0.0089,0,0,0,0,0,0,0.0112,0.01,0.0086,0.0083,0.0092,0.0062,0.0058,0.0059,0.0021,0.0015,0.0039,0.0038,-0.0014,-0.0019,-0.0024,-0.0022,-0.0045,-0.0048,-0.0049,-0.009,-0.0089,-0.0089,0,0,0,0,0,0,0.0112,0.0111,0.0088,0.0092,0.0087,0.0063,0.0063,0.0058,0.0051,0.0018,0.0011,0.0038,-0.0014,-0.0021,-0.0036,-0.0026,-0.0049,-0.0051,-0.009,-0.0089,-0.0089,-0.003,0,0,0,0,0,0,0.0113,0.0111,0.0116,0.0093,0.0088,0.0083,0.0063,0.0057,0.005,0.0048,0.0014,0.0009,-0.0015,-0.0032,-0.0038,-0.0029,-0.0052,-0.009,-0.009,-0.0089,-0.0032,-0.0027,-0.0024,0,0,0,0,0,0.0114,0.0123,0.0116,0.0114,0.0094,0.0084,0.0079,0.0059,0.0051,0.0052,0.0029,0.001,-0.0034,-0.0034,-0.004,-0.0032,-0.009,-0.009,-0.0089,-0.0034,-0.0028,-0.0024,0,0,0,0,0,0,0.0131,0.0121,0.0112,0.0117,0.0105,0.0079,0.0079,0.0065,0.0047,0.0046,0.0013,0.0005,-0.0005,-0.0027,-0.0026,-0.0044,-0.0065,-0.0066,-0.0021,-0.0016,-0.0012,0.0001,-0.0054,0,0,0,0,0,0.0138,0.0144,0.0127,0.0131,0.0128,0.0104,0.0097,0.0086,0.0067,0.0059,0.0035,0.001,-0.0009,-0.0019,-0.0041,-0.0049,-0.0078,-0.0049,-0.0045,-0.0041,-0.0036,-0.007,-0.0068,-0.0088,-0.0088,-0.0088,0,0,0.0146,0.0141,0.0143,0.0135,0.0123,0.0129,0.01,0.0096,0.01,0.0056,0.0053,0.0024,-0.0009,-0.0018,-0.0024,-0.0034,-0.0052,-0.004,-0.0037,-0.0034,-0.0069,-0.0067,-0.0065,-0.0087,-0.0087,-0.0087,0,0,0.0168,0.0161,0.0174,0.017,0.0161,0.0149,0.0151,0.0131,0.0121,0.0113,0.0083,0.0062,0.0032,0.0011,-0.0004,0.0009,-0.0029,0.0002,0.0035,0.0003,0.0004,0.0005,-0.0032,-0.0035,0.0005,0.0006,0.0006,0,0.0177,0.0194,0.0176,0.0189,0.0194,0.0163,0.0182,0.0167,0.0144,0.0141,0.0121,0.0076,0.0046,0.0035,0.0038,0.002,-0.0007,0.0021,0.0009,0.0009,0.0009,-0.0029,-0.0033,0.0008,0.0008,0.0008,0.0008,0,0.021,0.0224,0.0233,0.0243,0.0244,0.0255,0.0238,0.0234,0.0217,0.02,0.0182,0.0135,0.011,0.0094,0.0069,0.0057,0.0035,0.0018,-0.0,0.0015,-0.0027,-0.0032,0.0013,0.0012,0.0011,0.001,0,0,0.023,0.0253,0.0257,0.0279,0.0277,0.0285,0.0292,0.0292,0.0305,0.0263,0.0268,0.0219,0.019,0.0171,0.0132,0.0098,0.0069,0.0063,0.006,0.0032,-0.0007,-0.0026,-0.0034,0.0051,0.005,0.005,-0.0037,0,0.0264,0.0309,0.0308,0.0352,0.0377,0.036,0.0372,0.0366,0.0353,0.0347,0.0288,0.0277,0.0221,0.0213,0.0169,0.0096,0.0059,0.0094,-0.0023,-0.0027,-0.0041,-0.0039,0.0049,-0.0041,-0.0042,-0.0043,-0.0044,0,0.0296,0.0327,0.0379,0.0419,0.0428,0.0447,0.0471,0.0481,0.046,0.0448,0.0417,0.037,0.0315,0.0266,0.0145,0.017,0.009,0.0024,0.0019,-0.0021,-0.0055,-0.0061,-0.0054,-0.0053,-0.0052,-0.0051,-0.0051,0,0.0327,0.0376,0.0425,0.0439,0.0474,0.0495,0.0512,0.0512,0.054,0.0518,0.0527,0.0446,0.0413,0.03,0.0159,0.0155,0.0017,-0.0004,-0.01,-0.0103,-0.0086,-0.0086,-0.0088,-0.0088,-0.0088,-0.0087,-0.0087,0,0.0363,0.0403,0.0447,0.0475,0.054,0.0544,0.0609,0.0609,0.0627,0.0665,0.0587,0.0583,0.042,0.0318,0.0183,0.0024,0.0035,-0.0095,-0.0125,-0.006,-0.0056,-0.009,-0.0089,-0.0091,-0.009,-0.0089,-0.0089,0,0.0389,0.0414,0.0478,0.0531,0.0558,0.0605,0.0687,0.0733,0.0734,0.0779,0.0777,0.0689,0.0549,0.0374,0.0184,0.0067,-0.0088,-0.0147,-0.0065,-0.0089,-0.0194,-0.0189,-0.0259,-0.0261,-0.0262,-0.0263,-0.0263,0,0.0406,0.0441,0.0527,0.0578,0.0609,0.0689,0.0748,0.0785,0.0839,0.0842,0.0861,0.0745,0.0659,0.0384,0.0186,-0.0078,-0.0119,-0.02,-0.0201,-0.0189,-0.0211,-0.0204,-0.0198,-0.0265,-0.0266,-0.0266,-0.0266,0,0.0441,0.047,0.0527,0.0634,0.071,0.0808,0.0891,0.0938,0.0975,0.0976,0.0939,0.0788,0.0624,0.0392,0.0182,-0.0008,-0.0148,-0.0213,-0.0212,-0.0214,-0.0197,-0.0217,-0.0209,-0.027,-0.027,-0.0269,-0.0269,0,0.0469,0.0515,0.0592,0.0688,0.079,0.0892,0.0937,0.0994,0.1041,0.1031,0.1013,0.0829,0.072,0.0428,0.0237,0.0043,-0.0011,-0.0072,-0.0079,-0.0077,-0.0007,0.0041,0.0018,0,0,0,0,0,0.0494,0.0553,0.0644,0.075,0.0852,0.0917,0.1019,0.1054,0.1082,0.107,0.1047,0.0892,0.0599,0.0473,0.0277,0.0197,-0.0056,-0.0041,-0.0131,-0.0292,-0.0288,-0.024,0,0,0,0,0,0,0.0514,0.0597,0.0647,0.0785,0.0866,0.0988,0.1057,0.108,0.1075,0.1064,0.0917,0.0836,0.0554,0.0711,0.027,0.0209,0.0124,-0.0179,-0.0184,-0.0295,-0.0291,-0.0287,-0.0236,0,0,0,0,0]}]]